Location: Newark
(46.7000°N, 60.6000°W)
Time: 05:08:33
(UTC+00:00)

Transit 2A Rocket - Pass Details

Date: 27 October 2020
Orbit: 588 x 914 km, 66.7° (Epoch: 27 November)

Event Time Altitude Azimuth Distance (km) Brightness Sun altitude
Rises 16:32:11 0° 275° (W) 3,533 8.5 29.3°
Reaches altitude 10° 16:35:51 10° 296° (WNW) 2,564 7.7 29.2°
Maximum altitude 16:39:24 16° 333° (NNW) 2,127 7.0 29.0°
Drops below altitude 10° 16:42:50 10° 10° (N) 2,472 7.2 28.9°
Sets 16:46:17 0° 32° (NNE) 3,343 7.8 28.7°
